Notices

What's New in latest Release from April 7th, 2021:

- Updated Glossary, including Speed of Maximum Gust, and Total Hourly Precipitation

- Updated national and regional climate services offices contacts and prices information

- Addition of station inventory lists for 1981-2010, 1971-2000, and 1961-1990 Normals.

If you haven't already, please take our survey and provide feedback about our website: https://eccc.sondage-survey.ca/f/LanguageSelection.aspx?s=442ca660-fcf1-47c0-95a9-59707d6fd709

Hourly Data Report for February 01, 2021

OTTAWA INTL A
ONTARIO
Current Station Operator: NAVCAN

45°19'00.000" N
75°40'00.000" W
114.90 m
6106001
71628
YOW

Download Data

Hourly Data (February 2021)
Hourly Data Report for February 1, 2021
TIME
LST
Temp Definition
°C
Dew Point Definition
°C
Rel Hum Definition
%
Precip. Amount Definition
mm

Wind Dir Definition
10's deg

Wind Spd Definition
km/h
Visibility Definition
km
Stn Press Definition
kPa
Hmdx Definition


Wind Chill Definition


Weather Definition


00:00 -17.9 -21.8 72   2 14 24.1 101.15   -26 LegendNANA
01:00 -19.8 -23.1 76   2 10 24.1 101.13   -27 Clear
02:00 -18.4 -22.3 72   3 18 24.1 101.11   -28 LegendNANA
03:00 -19.7 -23.2 74   4 14 24.1 101.07   -28 LegendNANA
04:00 -20.3 -23.2 78   4 13 24.1 101.05   -29 Clear
05:00 -20.2 -23.0 79   4 17 24.1 101.06   -30 LegendNANA
06:00 -19.5 -22.2 79   36 10 24.1 101.06   -27 LegendNANA
07:00 -19.9 -22.3 81   36 10 24.1 101.06   -27 Clear
08:00 -22.1 -24.4 82   1 6 24.1 101.07   -27 LegendNANA
09:00 -18.1 -21.4 76   1 7 24.1 101.07   -23 LegendNANA
10:00 -15.3 -19.7 69   4 8 24.1 101.04   -21 Mainly Clear
11:00 -12.6 -18.8 60   5 16 24.1 101.01   -20 LegendNANA
12:00 -10.9 -17.8 57   5 17 24.1 100.90   -18 LegendNANA
13:00 -8.9 -16.5 55   5 23 24.1 100.80   -17 Mainly Clear
14:00 -7.2 -15.4 53   6 17 24.1 100.71   -14 LegendNANA
15:00 -5.9 -14.6 50   6 19 24.1 100.70   -13 LegendNANA
16:00 -6.1 -14.1 54   4 18 24.1 100.68   -13 Mainly Clear
17:00 -7.5 -14.1 59   4 15 24.1 100.65   -14 LegendNANA
18:00 -9.0 -14.8 63   10 5 24.1 100.71   -12 LegendNANA
19:00 -10.0 -14.8 68   9 10 24.1 100.73   -15 Mainly Clear
20:00 -11.5 -15.7 71   4 17 24.1 100.66   -19 LegendNANA
21:00 -11.0 -14.8 73   3 14 24.1 100.62   -18 LegendNANA
22:00 -10.2 -14.2 72   35 10 24.1 100.57   -15 Mainly Clear
23:00 -11.1 -15.3 72   1 12 24.1 100.52   -17 LegendNANA

Notes on Data Quality.

Legend

  • E = Estimated
  • M = Missing
  • NA = Not Available*
  • [empty] = Indicates an unobserved value
Date modified: